Weather History for Wittering, United Kingdom

Change the Weather History Date:

Saturday, January 26, 2013

  Actual Average Record
Temperature  
Mean Temperature 38 °F -  
Max Temperature 43 °F 44 °F 51 °F (2003)
Min Temperature 32 °F 34 °F 28 °F (1997)
Degree Days  
Heating Degree Days 28    
Moisture  
Dew Point 35 °F    
Average Humidity 91    
Maximum Humidity 100    
Minimum Humidity 70    
Precipitation  
Precipitation 0.35 in - - ()
Sea Level Pressure  
Sea Level Pressure 29.63 in    
Wind  
Wind Speed 12 mph ()    
Max Wind Speed 20 mph    
Max Gust Speed -    
Visibility 6.8 miles    
Events Rain , Snow    
Averages and records for this station are not official NWS values.
T = Trace of Precipitation, MM = Missing Value Source: Averaged Metar Reports

Daily Weather History Graph

Daily Weather History Graph

Search for Another Location

Airport:

Trip Planner

Search our weather history database for the weather conditions in past years. The results will help you decide how hot, cold, wet, or windy it might be!

Date:

Astronomy

Jan. 26, 2013 Rise Set
Actual Time 7:52 AM GMT 4:36 PM GMT
Civil Twilight 7:14 AM GMT 5:14 PM GMT
Nautical Twilight 6:32 AM GMT 5:56 PM GMT
Astronomical Twilight 5:52 AM GMT 6:37 PM GMT
Moon 4:22 PM GMT (1/26) 6:58 AM GMT (1/26)
Length of Visible Light 10h 00m
Length of Day
8h 43m
Full, 100% of the Moon is Illuminated
Jan 26
Full
Jan 27
Full
Feb 3
Last Quarter
Feb 10
New
Feb 17
First Quarter

Hourly Weather History & Observations

Time (GMT) Temp. Windchill Dew Point Humidity Pressure Visibility Wind Dir Wind Speed Gust Speed Precip Events Conditions
12:50 AM 32.0 °F 22.5 °F 32.0 °F 100% 29.50 in 0.4 mi SSE 12.7 mph - N/A Snow Snow
1:50 AM 32.0 °F 21.6 °F 32.0 °F 100% 29.50 in 0.6 mi SSE 15.0 mph - N/A Snow Snow
2:50 AM 32 °F - 32 °F 100% 29.55 in 1 mi South 12.7 mph - - Snow Light Snow
2:50 AM 32.0 °F 22.5 °F 32.0 °F 100% 29.53 in 1.2 mi South 12.7 mph - N/A Snow Light Snow
3:50 AM 33.8 °F 24.8 °F 32.0 °F 93% 29.56 in 1.4 mi South 12.7 mph - N/A Snow Light Snow
4:50 AM 33.8 °F 25.3 °F 33.8 °F 100% 29.59 in 6.2 mi SW 11.5 mph - N/A   Mostly Cloudy
5:50 AM 36 °F - 35 °F 94% 29.62 in 19 mi West 10.4 mph - - Rain Drizzle
5:50 AM 35.6 °F 28.0 °F 35.6 °F 100% 29.59 in 6.2 mi West 10.4 mph - N/A   Mostly Cloudy
6:50 AM 35.6 °F 27.1 °F 33.8 °F 93% 29.62 in 6.2 mi West 12.7 mph - N/A   Unknown
7:50 AM 32.0 °F 23.0 °F 32.0 °F 100% 29.68 in 6.2 mi West 11.5 mph - N/A   Unknown
8:50 AM 34 °F - 32 °F 91% 29.73 in 7 mi WSW 11.5 mph - -  
8:50 AM 33.8 °F 25.3 °F 32.0 °F 93% 29.71 in 6.2 mi WSW 11.5 mph - N/A   Unknown
9:50 AM 35.6 °F 26.2 °F 33.8 °F 93% 29.71 in 6.2 mi West 15.0 mph - N/A   Unknown
10:50 AM 39.2 °F 31.2 °F 33.8 °F 81% 29.74 in 6.2 mi WSW 13.8 mph - N/A   Unknown
11:50 AM 40 °F - 34 °F 70% 29.77 in 14 mi WSW 11.5 mph - -   Scattered Clouds
11:50 AM 39.2 °F 32.0 °F 33.8 °F 81% 29.74 in 6.2 mi WSW 11.5 mph - N/A   Partly Cloudy
12:50 PM 41.0 °F 34.7 °F 33.8 °F 76% 29.74 in 6.2 mi WSW 10.4 mph - N/A   Partly Cloudy
1:50 PM 39.2 °F 30.2 °F 35.6 °F 87% 29.74 in 6.2 mi WSW 17.3 mph - N/A   Mostly Cloudy
2:50 PM 40 °F - 35 °F 75% 29.75 in 18 mi SW 15.0 mph - -   Overcast
2:50 PM 39.2 °F 30.8 °F 35.6 °F 87% 29.74 in 6.2 mi SW 15.0 mph - N/A   Overcast
3:50 PM 39.2 °F 30.2 °F 33.8 °F 81% 29.71 in 6.2 mi SW 17.3 mph - N/A   Mostly Cloudy
4:50 PM 39.2 °F 31.6 °F 35.6 °F 87% 29.71 in 6.2 mi SSW 12.7 mph - N/A   Mostly Cloudy
5:50 PM 39 °F - 36 °F 87% 29.70 in 16 mi SSW 13.8 mph - -   Mostly Cloudy
5:50 PM 39.2 °F 31.2 °F 37.4 °F 93% 29.68 in 6.2 mi SSW 13.8 mph - N/A   Mostly Cloudy
6:50 PM 41.0 °F 33.5 °F 37.4 °F 87% 29.62 in 6.2 mi South 13.8 mph - N/A   Mostly Cloudy
7:50 PM 39.2 °F 30.8 °F 37.4 °F 93% 29.59 in 6.2 mi South 15.0 mph - N/A Rain Light Rain Showers
8:50 PM 40 °F - 38 °F 91% 29.58 in 6 mi South 16.1 mph - - Rain Rain
8:50 PM 39.2 °F 30.5 °F 39.2 °F 100% 29.56 in 6.2 mi South 16.1 mph - N/A Rain Rain
9:50 PM 41.0 °F 31.9 °F 39.2 °F 93% 29.50 in 6.2 mi South 19.6 mph - N/A Rain Light Rain
10:50 PM 42.8 °F 34.8 °F 41.0 °F 93% 29.47 in 3.1 mi South 17.3 mph - N/A Rain Light Rain
11:50 PM 43 °F - 42 °F 92% 29.47 in 12 mi South 19.6 mph - - Rain Light Rain
11:50 PM 42.8 °F 34.3 °F 41.0 °F 93% 29.44 in 6.2 mi South 19.6 mph - N/A Rain Light Rain